User: anonymous   Login
Location: Valdosta
(30.8330°N, 83.2790°W)
Time: 11:42:09
(UTC-04:00)
Language:

Uribyol 2 - Orbit

View from above orbital plane
View from above orbital plane
View from above satellite
View from above satellite

Ground track
Ground track

The orbit data is extracted from the following two-line orbital elements,

1 22828U 93061F   15115.10759511  .00000361  00000-0  15569-3 0  9992
2 22828 098.6898 064.5645 0011024 068.6742 291.5616 14.30488431 93832
Epoch (UTC): 25 April 2015 02:34:56
Eccentricity: 0.0011024
inclination: 98.6898°
perigee height: 782 km
apogee height: 798 km
right ascension of ascending node: 64.5645°
argument of perigee: 68.6742°
revolutions per day: 14.30488431
mean anomaly at epoch: 291.5616°
orbit number at epoch: 9383

The dashed part of the orbit path shows where the satellite is in the earth's shadow,  

DLR